EW6304 Weather Reports


Display with metric or nautical units.
time (UTC)temp
F
wind
direction
speed
MPH
gust
MPH
rain 1hr
in
rain 24hr
in
rain mn
in
humidity
%
barometer
mb
20260508192259 63 311 3.0 9.0 0.00 0.00 0.00 37 1007.2
20260508191759 62 317 3.0 11.0 0.00 0.00 0.00 38 1007.1
20260508191259 62 307 5.0 15.0 0.00 0.00 0.00 37 1007.2
20260508190759 62 321 5.0 15.0 0.00 0.00 0.00 36 1007.2
20260508190259 63 341 4.0 16.0 0.00 0.00 0.00 38 1007.3
20260508185804 63 249 5.0 16.0 0.00 0.00 0.00 36 1007.2
20260508185758 63 308 4.0 12.0 0.00 0.00 0.00 35 1007.2
20260508184812 62 343 5.0 15.0 0.00 0.00 0.00 36 1007.2
20260508184758 63 275 3.0 7.0 0.00 0.00 0.00 36 1007.1
20260508184257 62 320 4.0 14.0 0.00 0.00 0.00 38 1007.2
20260508183803 62 324 5.0 14.0 0.00 0.00 0.00 36 1007.2
20260508182757 62 320 5.0 15.0 0.00 0.00 0.00 36 1007.3
20260508182257 62 247 4.0 12.0 0.00 0.00 0.00 35 1007.3
20260508181759 62 266 4.0 12.0 0.00 0.00 0.00 36 1007.2
20260508181304 63 11 4.0 13.0 0.00 0.00 0.00 35 1007.3
20260508181258 62 243 4.0 11.0 0.00 0.00 0.00 35 1007.3
20260508180757 63 300 4.0 13.0 0.00 0.00 0.00 36 1007.2
20260508175755 62 315 4.0 10.0 0.00 0.00 0.00 36 1007.1
20260508175256 63 259 6.0 12.0 0.00 0.00 0.00 36 1007.1
20260508174756 63 252 5.0 12.0 0.00 0.00 0.00 37 1007.2
20260508174255 63 0 4.0 11.0 0.00 0.00 0.00 37 1007.2
20260508173801 63 0 4.0 10.0 0.00 0.00 0.00 35 1007.2
20260508173755 63 0 4.0 11.0 0.00 0.00 0.00 35 1007.2
20260508172756 63 0 4.0 12.0 0.00 0.00 0.00 37 1007.3
20260508172255 63 0 4.0 12.0 0.00 0.00 0.00 37 1007.2
20260508171756 64 0 3.0 10.0 0.00 0.00 0.00 38 1007.4
20260508171259 64 0 3.0 8.0 0.00 0.00 0.00 36 1007.3
20260508171255 63 319 3.0 10.0 0.00 0.00 0.00 38 1007.4
20260508170254 62 274 4.0 12.0 0.00 0.00 0.00 39 1007.4
20260508165754 63 337 4.0 12.0 0.00 0.00 0.00 36 1007.4
20260508165255 62 298 3.0 9.0 0.00 0.00 0.00 40 1007.4
20260508164754 62 314 2.0 6.0 0.00 0.00 0.00 39 1007.4
20260508164254 62 250 3.0 8.0 0.00 0.00 0.00 37 1007.6
20260508163753 63 271 4.0 8.0 0.00 0.00 0.00 36 1007.6
20260508163253 63 317 2.0 9.0 0.00 0.00 0.00 37 1007.6
20260508162754 61 318 3.0 9.0 0.00 0.00 0.00 40 1007.5
20260508162252 62 237 4.0 9.0 0.00 0.00 0.00 38 1007.6
20260508161753 61 324 4.0 10.0 0.00 0.00 0.00 40 1007.6
20260508161254 60 294 4.0 10.0 0.00 0.00 0.00 39 1007.8
20260508160753 61 268 4.0 10.0 0.00 0.00 0.00 38 1007.8
20260508160254 61 306 4.0 10.0 0.00 0.00 0.00 39 1007.9
20260508155758 62 319 3.0 7.0 0.00 0.00 0.00 37 1007.9
20260508155753 62 310 3.0 7.0 0.00 0.00 0.00 40 1007.9
20260508154754 61 297 3.0 8.0 0.00 0.00 0.00 41 1008.1
20260508154252 61 248 4.0 8.0 0.00 0.00 0.00 40 1008.1
20260508153758 59 249 4.0 11.0 0.00 0.00 0.00 38 1008.2
20260508153754 60 19 3.0 11.0 0.00 0.00 0.00 40 1008.2
20260508152753 60 260 4.0 11.0 0.00 0.00 0.00 37 1008.2
20260508152252 60 292 5.0 10.0 0.00 0.00 0.00 41 1008.2
20260508151759 60 241 4.0 13.0 0.00 0.00 0.00 35 1008.3
20260508151752 60 259 5.0 13.0 0.00 0.00 0.00 37 1008.3
20260508150754 60 305 3.0 9.0 0.00 0.00 0.00 37 1008.4
20260508150252 60 303 2.0 9.0 0.00 0.00 0.00 40 1008.4
20260508145752 60 355 2.0 6.0 0.00 0.00 0.00 41 1008.4
20260508145255 60 0 2.0 6.0 0.00 0.00 0.00 40 1008.4
20260508144753 59 313 3.0 9.0 0.00 0.00 0.00 41 1008.4
20260508144252 58 269 4.0 9.0 0.00 0.00 0.00 41 1008.4
20260508143752 58 306 3.0 9.0 0.00 0.00 0.00 40 1008.5
20260508143257 58 344 2.0 8.0 0.00 0.00 0.00 43 1008.5
20260508143253 59 319 2.0 6.0 0.00 0.00 0.00 42 1008.6
20260508142251 58 284 3.0 11.0 0.00 0.00 0.00 40 1008.5
20260508141748 58 304 3.0 11.0 0.00 0.00 0.00 42 1008.6
20260508141250 57 309 3.0 8.0 0.00 0.00 0.00 42 1008.6
20260508140749 57 236 3.0 9.0 0.00 0.00 0.00 47 1008.7
20260508140255 57 330 4.0 10.0 0.00 0.00 0.00 43 1008.8
20260508140250 57 234 4.0 10.0 0.00 0.00 0.00 42 1008.8
20260508135748 57 296 3.0 10.0 0.00 0.00 0.00 42 1008.9
20260508134747 57 309 3.0 10.0 0.00 0.00 0.00 42 1008.8
20260508134252 57 307 4.0 9.0 0.00 0.00 0.00 42 1009.0
20260508134247 57 298 4.0 10.0 0.00 0.00 0.00 42 1008.9
20260508133245 57 232 3.0 8.0 0.00 0.00 0.00 41 1008.9
20260508132744 57 322 3.0 8.0 0.00 0.00 0.00 43 1008.9
20260508132245 56 327 3.0 8.0 0.00 0.00 0.00 45 1008.9
20260508131744 56 280 3.0 11.0 0.00 0.00 0.00 43 1008.9
20260508131244 56 267 3.0 11.0 0.00 0.00 0.00 42 1009.0
20260508130744 56 286 2.0 4.0 0.00 0.00 0.00 45 1008.9
20260508130244 56 247 2.0 4.0 0.00 0.00 0.00 47 1009.0
20260508125752 54 292 2.0 9.0 0.00 0.00 0.00 49 1009.1
20260508125745 56 239 2.0 6.0 0.00 0.00 0.00 46 1009.0
20260508125244 55 291 3.0 8.0 0.00 0.00 0.00 49 1009.0
20260508124744 55 294 2.0 9.0 0.00 0.00 0.00 48 1009.1
20260508123746 54 314 2.0 5.0 0.00 0.00 0.00 49 1009.1
20260508123244 53 311 2.0 7.0 0.00 0.00 0.00 50 1009.1
20260508122747 53 242 2.0 7.0 0.00 0.00 0.00 48 1009.1
20260508122245 53 304 2.0 8.0 0.00 0.00 0.00 49 1009.1
20260508121743 53 265 2.0 8.0 0.00 0.00 0.00 50 1009.1
20260508121243 53 272 2.0 7.0 0.00 0.00 0.00 51 1009.1
20260508120744 53 277 2.0 7.0 0.00 0.00 0.00 49 1009.1
20260508120243 53 337 2.0 4.0 0.00 0.00 0.00 52 1009.1
20260508115743 52 285 2.0 5.0 0.00 0.00 0.00 54 1009.2
20260508115247 51 304 2.0 8.0 0.00 0.00 0.00 56 1009.3
20260508115242 51 288 2.0 8.0 0.00 0.00 0.00 53 1009.2
20260508114248 50 283 2.0 8.0 0.00 0.00 0.00 58 1009.2
20260508114242 51 271 2.0 8.0 0.00 0.00 0.00 58 1009.3
20260508113247 48 300 1.0 3.0 0.00 0.00 0.00 64 1009.1
20260508113243 49 259 1.0 3.0 0.00 0.00 0.00 62 1009.2
20260508112246 48 308 1.0 3.0 0.00 0.00 0.00 66 1009.1
20260508112241 47 294 1.0 2.0 0.00 0.01 0.00 67 1009.0
20260508111240 46 294 0.0 2.0 0.00 0.03 0.00 69 1009.1
20260508110740 46 295 0.0 2.0 0.00 0.03 0.00 73 1009.1
20260508110240 45 295 0.0 1.0 0.00 0.04 0.00 77 1009.1
20260508105743 44 295 0.0 1.0 0.00 0.04 0.00 77 1008.9
20260508105241 43 294 0.0 1.0 0.00 0.05 0.00 78 1008.9
20260508104745 43 295 0.0 0.0 0.00 0.05 0.00 79 1008.8
20260508104741 43 295 0.0 0.0 0.00 0.05 0.00 79 1008.8
20260508103740 42 295 0.0 0.0 0.00 0.05 0.00 80 1008.7
20260508103241 42 295 0.0 0.0 0.00 0.05 0.00 81 1008.6
20260508102740 42 295 0.0 0.0 0.00 0.05 0.00 80 1008.6
20260508102241 42 295 0.0 0.0 0.00 0.05 0.00 81 1008.7
20260508101746 41 295 0.0 0.0 0.00 0.05 0.00 80 1008.6
20260508101740 42 295 0.0 0.0 0.00 0.05 0.00 81 1008.6
20260508100739 41 295 0.0 0.0 0.00 0.05 0.00 80 1008.5
20260508100241 41 295 0.0 0.0 0.00 0.06 0.00 80 1008.4
20260508095746 41 294 0.0 0.0 0.00 0.07 0.00 80 1008.3
20260508095741 41 295 0.0 0.0 0.00 0.07 0.00 79 1008.4
20260508094742 41 295 0.0 0.0 0.00 0.07 0.00 80 1008.3
20260508094238 41 295 0.0 0.0 0.00 0.07 0.00 79 1008.2
20260508093741 41 295 0.0 0.0 0.00 0.07 0.00 79 1008.2
20260508093244 40 295 0.0 0.0 0.00 0.08 0.00 79 1008.1
20260508093239 40 295 0.0 0.0 0.00 0.08 0.00 80 1008.1
20260508092239 40 295 0.0 0.0 0.00 0.08 0.00 77 1008.2
20260508091738 40 295 0.0 0.0 0.00 0.08 0.00 77 1008.1
20260508091239 40 295 0.0 0.0 0.00 0.08 0.00 77 1008.1
20260508090743 40 295 0.0 0.0 0.00 0.08 0.00 77 1008.1
20260508090737 40 295 0.0 0.0 0.00 0.08 0.00 77 1008.1
20260508085738 40 295 0.0 0.0 0.00 0.08 0.00 77 1008.0
20260508085239 40 295 0.0 0.0 0.00 0.09 0.00 77 1008.1
20260508084737 40 295 0.0 0.0 0.00 0.09 0.00 76 1008.0
20260508084237 41 296 0.0 0.0 0.00 0.09 0.00 76 1008.0
20260508083743 41 296 0.0 0.0 0.00 0.11 0.00 76 1007.8
20260508083737 41 295 0.0 0.0 0.00 0.10 0.00 76 1007.9
20260508082740 41 295 0.0 0.0 0.00 0.11 0.00 75 1007.7
20260508082238 41 295 0.0 0.0 0.00 0.11 0.00 75 1007.6
20260508081738 41 295 0.0 0.0 0.00 0.15 0.00 75 1007.6
20260508081238 41 296 0.0 0.0 0.00 0.18 0.00 74 1007.5
20260508080739 42 296 0.0 1.0 0.00 0.20 0.00 74 1007.4
20260508080244 42 296 0.0 1.0 0.00 0.23 0.00 74 1007.3
20260508080239 42 295 0.0 1.0 0.00 0.22 0.00 74 1007.4
20260508075239 42 296 0.0 0.0 0.00 0.23 0.00 72 1007.2
20260508074738 42 296 0.0 0.0 0.00 0.25 0.00 71 1007.1
20260508074237 42 295 0.0 0.0 0.00 0.26 0.00 71 1007.0
20260508073736 43 295 0.0 0.0 0.00 0.29 0.00 71 1006.9
20260508073236 43 295 0.0 0.0 0.00 0.30 0.00 70 1006.8
20260508072736 44 295 0.0 0.0 0.00 0.30 0.00 70 1006.8
20260508072242 44 295 0.0 0.0 0.00 0.30 0.00 67 1006.5
20260508072237 44 296 0.0 0.0 0.00 0.30 0.00 68 1006.6
20260508071241 45 295 0.0 0.0 0.00 0.30 0.00 67 1006.4
20260508071235 45 295 0.0 0.0 0.00 0.30 0.00 66 1006.5
20260508070237 46 296 0.0 0.0 0.00 0.30 0.00 66 1006.5
20260508065735 46 296 0.0 0.0 0.00 0.30 0.00 64 1006.5
20260508065236 47 296 0.0 0.0 0.00 0.30 0.00 64 1006.6
20260508064733 48 295 0.0 1.0 0.00 0.30 0.00 62 1006.6
20260508064233 48 296 0.0 1.0 0.00 0.30 0.00 61 1006.5
20260508063734 49 0 1.0 2.0 0.00 0.30 0.00 60 1006.6
20260508063233 49 296 1.0 3.0 0.00 0.30 0.00 54 1006.6
20260508062735 49 296 2.0 4.0 0.00 0.30 0.00 54 1006.6
20260508062233 49 275 1.0 4.0 0.00 0.30 0.00 53 1006.5
20260508061733 49 271 1.0 3.0 0.00 0.30 0.00 53 1006.5
20260508061234 49 275 1.0 3.0 0.00 0.30 0.00 54 1006.5
20260508060731 49 266 1.0 3.0 0.00 0.30 0.00 53 1006.5
20260508060230 49 294 2.0 4.0 0.00 0.30 0.00 52 1006.5
20260508055736 50 311 1.0 4.0 0.00 0.30 0.00 52 1006.5
20260508055731 50 290 2.0 4.0 0.00 0.30 0.00 52 1006.6
20260508055351 50 305 1.0 3.0 0.00 0.30 0.00 51 1006.5
20260508054730 50 306 1.0 3.0 0.00 0.30 0.00 52 1006.6
20260508054346 50 308 2.0 9.0 0.00 0.30 0.00 51 1006.4
20260508053229 51 306 2.0 9.0 0.00 0.30 0.00 51 1006.5
20260508052729 51 276 2.0 8.0 0.00 0.30 0.00 50 1006.4
20260508052230 51 287 2.0 7.0 0.00 0.30 0.00 51 1006.5
20260508051729 51 288 2.0 5.0 0.00 0.30 0.00 50 1006.5
20260508051228 51 284 2.0 7.0 0.00 0.30 0.00 50 1006.4
20260508050728 51 284 3.0 7.0 0.00 0.30 0.00 50 1006.5
20260508050227 51 265 2.0 6.0 0.00 0.30 0.00 50 1006.5
20260508045728 51 304 2.0 4.0 0.00 0.30 0.00 50 1006.5
20260508045227 52 292 2.0 7.0 0.00 0.30 0.00 50 1006.5
20260508044728 52 295 3.0 7.0 0.00 0.30 0.00 50 1006.6
20260508044227 52 306 2.0 4.0 0.00 0.30 0.00 50 1006.6
20260508043727 52 303 2.0 7.0 0.00 0.30 0.00 50 1006.6
20260508043227 52 317 3.0 7.0 0.00 0.30 0.00 50 1006.6
20260508042726 52 291 2.0 6.0 0.00 0.30 0.00 49 1006.6
20260508042228 52 280 3.0 7.0 0.00 0.30 0.00 50 1006.6
20260508041731 53 284 3.0 7.0 0.00 0.30 0.00 49 1006.7
20260508041725 53 263 3.0 7.0 0.00 0.30 0.00 49 1006.7
20260508040725 53 298 3.0 10.0 0.00 0.30 0.00 49 1006.7
20260508040226 53 273 4.0 10.0 0.00 0.30 0.00 48 1006.7
20260508035726 53 223 3.0 8.0 0.00 0.30 0.30 48 1006.7
20260508035226 53 325 2.0 8.0 0.00 0.30 0.30 48 1006.7
20260508034726 53 300 2.0 5.0 0.00 0.30 0.30 48 1006.7
20260508034225 53 311 2.0 7.0 0.00 0.30 0.30 49 1006.7
20260508033732 53 312 2.0 6.0 0.00 0.30 0.30 48 1006.7
20260508033726 53 269 2.0 7.0 0.00 0.30 0.30 48 1006.7
20260508033223 53 290 2.0 6.0 0.00 0.30 0.30 49 1006.7
20260508032223 54 300 2.0 6.0 0.00 0.30 0.30 48 1006.6
20260508031723 54 300 2.0 5.0 0.00 0.30 0.30 47 1006.7
20260508031224 54 294 2.0 5.0 0.00 0.30 0.30 48 1006.7
20260508031220 54 323 2.0 5.0 0.00 0.30 0.30 48 1006.8
20260508030837 54 286 2.0 5.0 0.00 0.30 0.30 48 1006.8
20260508025719 54 279 1.0 4.0 0.00 0.30 0.30 48 1006.8
20260508025220 54 257 1.0 4.0 0.00 0.30 0.30 48 1006.8
20260508024719 54 275 1.0 4.0 0.00 0.30 0.30 48 1006.7
20260508024226 54 261 1.0 4.0 0.00 0.30 0.30 47 1006.7
20260508024220 54 307 1.0 3.0 0.00 0.30 0.30 47 1006.8
20260508023225 54 277 2.0 6.0 0.00 0.30 0.30 47 1006.7
20260508023219 54 301 2.0 6.0 0.00 0.30 0.30 46 1006.7
20260508022838 55 309 2.0 6.0 0.00 0.30 0.30 46 1006.8
20260508021722 55 286 2.0 7.0 0.00 0.30 0.30 46 1006.9
20260508021716 55 259 2.0 7.0 0.00 0.30 0.30 45 1006.9
20260508020715 55 264 2.0 7.0 0.00 0.30 0.30 45 1006.9
20260508020216 55 296 2.0 6.0 0.00 0.30 0.30 45 1006.9
20260508015714 55 271 2.0 7.0 0.00 0.30 0.30 45 1006.8
20260508015221 55 269 2.0 6.0 0.00 0.30 0.30 45 1006.8
20260508015215 55 311 3.0 7.0 0.00 0.30 0.30 45 1006.8
20260508014835 55 318 2.0 6.0 0.00 0.30 0.30 45 1006.7
20260508013719 56 259 2.0 7.0 0.00 0.30 0.30 44 1006.7
20260508013715 56 298 2.0 7.0 0.00 0.30 0.30 44 1006.7
20260508012714 56 306 2.0 4.0 0.00 0.30 0.30 44 1006.5
20260508012214 56 315 2.0 7.0 0.00 0.30 0.30 44 1006.5
20260508011716 56 302 2.0 7.0 0.00 0.30 0.30 43 1006.5
20260508011221 57 329 2.0 6.0 0.00 0.30 0.30 43 1006.3
20260508011214 56 296 2.0 7.0 0.00 0.30 0.30 42 1006.3
20260508010215 57 242 2.0 6.0 0.00 0.30 0.30 42 1006.3
20260508005715 57 277 2.0 6.0 0.00 0.30 0.30 41 1006.2
20260508005215 57 290 3.0 6.0 0.00 0.30 0.30 41 1006.2
20260508004720 58 257 3.0 7.0 0.00 0.30 0.30 40 1005.8
20260508004716 57 330 3.0 7.0 0.00 0.30 0.30 40 1006.0
20260508003714 58 246 3.0 12.0 0.00 0.30 0.30 39 1005.6
20260508003212 58 296 4.0 12.0 0.00 0.30 0.30 39 1005.4
20260508002712 58 312 4.0 11.0 0.00 0.30 0.30 39 1005.3
20260508002213 58 322 4.0 11.0 0.00 0.30 0.30 39 1005.4
20260508001712 58 309 3.0 9.0 0.00 0.30 0.30 39 1005.3
20260508001214 58 312 3.0 12.0 0.00 0.30 0.30 39 1005.3
20260508000713 59 252 3.0 12.0 0.00 0.30 0.30 39 1005.2
20260508000213 59 302 3.0 9.0 0.00 0.30 0.30 39 1005.1
20260507235717 60 252 4.0 9.0 0.00 0.31 0.30 37 1005.1
20260507235711 59 287 2.0 9.0 0.00 0.30 0.30 38 1005.1
20260507235210 59 280 3.0 9.0 0.00 0.31 0.30 38 1005.1
20260507234218 60 224 3.0 10.0 0.00 0.31 0.30 37 1005.1
20260507234211 60 293 3.0 9.0 0.00 0.31 0.30 37 1005.0
20260507233712 60 269 3.0 7.0 0.00 0.31 0.30 37 1005.1
20260507232710 60 325 3.0 10.0 0.00 0.31 0.30 36 1004.9
20260507232210 61 291 4.0 10.0 0.00 0.31 0.30 36 1005.0
20260507231711 61 237 4.0 10.0 0.00 0.31 0.30 36 1004.9
20260507231210 61 319 4.0 10.0 0.00 0.31 0.30 35 1004.8
20260507230710 61 286 3.0 9.0 0.00 0.31 0.30 35 1004.8
20260507230211 62 275 5.0 11.0 0.00 0.31 0.30 34 1004.7
20260507230207 61 266 4.0 11.0 0.00 0.31 0.30 35 1004.7
20260507225206 62 273 4.0 13.0 0.00 0.31 0.30 35 1004.7
20260507224705 62 266 4.0 13.0 0.00 0.31 0.30 35 1004.5
20260507224209 63 237 4.0 14.0 0.00 0.32 0.30 35 1004.4
20260507224205 62 234 5.0 14.0 0.00 0.31 0.30 34 1004.5
20260507223205 63 325 4.0 13.0 0.00 0.32 0.30 34 1004.4
20260507222705 63 330 4.0 13.0 0.00 0.33 0.30 35 1004.4
20260507222204 64 303 4.0 12.0 0.00 0.33 0.30 34 1004.3
20260507221705 64 329 4.0 12.0 0.00 0.34 0.30 34 1004.3
20260507221204 65 283 4.0 9.0 0.00 0.34 0.30 34 1004.3
20260507220704 65 263 4.0 11.0 0.00 0.35 0.30 34 1004.2
20260507220204 65 15 4.0 15.0 0.00 0.35 0.30 34 1004.2
20260507215703 65 325 5.0 15.0 0.00 0.35 0.30 34 1004.2
20260507215201 65 294 5.0 12.0 0.00 0.35 0.30 32 1004.2
20260507214702 66 264 4.0 11.0 0.00 0.35 0.30 34 1004.1
20260507214208 66 303 3.0 9.0 0.00 0.35 0.30 33 1003.9
20260507214203 66 271 4.0 11.0 0.00 0.35 0.30 33 1004.1
20260507213202 66 237 3.0 8.0 0.00 0.35 0.30 33 1003.9
20260507212703 66 279 3.0 9.0 0.00 0.35 0.30 33 1003.9
20260507212202 66 257 3.0 9.0 0.00 0.35 0.30 33 1003.9
20260507211707 66 238 3.0 9.0 0.00 0.35 0.30 32 1003.8
20260507211703 66 250 3.0 9.0 0.00 0.35 0.30 34 1003.9
20260507210705 66 267 3.0 10.0 0.00 0.35 0.30 32 1003.8
20260507210701 66 257 3.0 10.0 0.00 0.35 0.30 33 1003.8
20260507205658 66 305 4.0 13.0 0.00 0.35 0.30 33 1003.8
20260507205158 66 312 4.0 13.0 0.00 0.35 0.30 32 1003.7
20260507204658 65 257 3.0 9.0 0.00 0.35 0.30 34 1003.8
20260507204158 65 277 4.0 12.0 0.00 0.35 0.30 33 1003.9
20260507203656 65 326 5.0 12.0 0.00 0.35 0.30 33 1003.8
20260507203157 65 294 5.0 12.0 0.00 0.35 0.30 32 1003.8
20260507202656 65 281 5.0 12.0 0.00 0.35 0.30 34 1003.7
20260507202157 65 322 4.0 12.0 0.00 0.35 0.30 34 1003.8
20260507201657 65 255 3.0 9.0 0.00 0.35 0.30 35 1003.7
20260507201203 66 245 3.0 7.0 0.00 0.35 0.30 31 1003.8
20260507201157 65 307 3.0 9.0 0.00 0.35 0.30 31 1003.7
20260507200815 65 263 4.0 10.0 0.00 0.36 0.30 31 1003.9
20260507200156 66 252 4.0 11.0 0.00 0.35 0.30 32 1003.8
20260507195654 65 278 4.0 11.0 0.00 0.36 0.30 33 1003.8
20260507194658 65 305 6.0 17.0 0.00 0.37 0.30 33 1004.0
20260507194652 65 317 5.0 12.0 0.00 0.37 0.30 33 1003.9
20260507194152 65 269 5.0 12.0 0.00 0.37 0.30 31 1004.0
20260507193150 65 323 6.0 17.0 0.00 0.37 0.30 33 1004.1
20260507192650 66 277 3.0 12.0 0.00 0.37 0.30 35 1004.1